This is the latest recevied weather packets stored in our database for station/object 9W2CHF-4. If no packets are shown the sender has not sent any weather packets the latest 10 day(s).
| Time | Temp. | Humidity | Pressure | Rain* | Wind** | Luminosity | Snow |
|---|---|---|---|---|---|---|---|
| 1777806507 | 32.78° C | 75% | 1008.9 hPa | - | - | - | - |
| 1777805607 | 32.78° C | 74% | 1008.6 hPa | - | - | - | - |
| 1777804707 | 33.33° C | 74% | 1008.5 hPa | - | - | - | - |
| 1777803807 | 33.33° C | 70% | 1008.3 hPa | - | - | - | - |
| 1777802907 | 33.33° C | 63% | 1008.4 hPa | - | - | - | - |
| 1777802006 | 33.33° C | 68% | 1008.3 hPa | - | - | - | - |
| 1777801106 | 33.33° C | 65% | 1008.4 hPa | - | - | - | - |
| 1777800206 | 33.33° C | 71% | 1008.1 hPa | - | - | - | - |
| 1777799306 | 33.33° C | 72% | 1008.1 hPa | - | - | - | - |
| 1777798409 | 33.89° C | 74% | 1007.9 hPa | - | - | - | - |
| 1777797509 | 33.89° C | 69% | 1008 hPa | - | - | - | - |
| 1777796609 | 33.89° C | 67% | 1008.2 hPa | - | - | - | - |
| 1777795709 | 33.89° C | 66% | 1008.1 hPa | - | - | - | - |
| 1777794809 | 33.33° C | 58% | 1008.1 hPa | - | - | - | - |
| 1777793909 | 33.33° C | 61% | 1008.5 hPa | - | - | - | - |
| 1777793009 | 33.33° C | 66% | 1008.7 hPa | - | - | - | - |
| 1777792109 | 33.33° C | 67% | 1008.7 hPa | - | - | - | - |
| 1777791209 | 33.33° C | 75% | 1008.8 hPa | - | - | - | - |
| 1777790308 | 33.33° C | 81% | 1009.1 hPa | - | - | - | - |
| 1777789408 | 33.33° C | 77% | 1009.3 hPa | - | - | - | - |
| 1777788508 | 33.33° C | 78% | 1009.4 hPa | - | - | - | - |
| 1777787608 | 33.33° C | 76% | 1009.6 hPa | - | - | - | - |
| 1777786708 | 33.33° C | 77% | 1009.8 hPa | - | - | - | - |
| 1777785808 | 32.78° C | 81% | 1010 hPa | - | - | - | - |
| 1777784908 | 32.78° C | 80% | 1010.1 hPa | - | - | - | - |
* Rain since midnight (hover to see other rain measurements)
** Current wind speed in m/s (hover to see current wind gust speed)